This is the latest recevied weather packets stored in our database for station/object DB0LS-15. If no packets are shown the sender has not sent any weather packets the latest 10 day(s).
| Time | Temp. | Humidity | Pressure | Rain* | Wind** | Luminosity | Snow |
|---|---|---|---|---|---|---|---|
| 1777869332 | 15° C | 66% | 994.5 hPa | 0 mm | - | - | - |
| 1777868728 | 15° C | 67% | 994.5 hPa | 0 mm | - | - | - |
| 1777868124 | 15° C | 66% | 994.3 hPa | 0 mm | - | - | - |
| 1777867521 | 15° C | 65% | 994.4 hPa | 0 mm | - | - | - |
| 1777866917 | 15° C | 66% | 994.5 hPa | 0 mm | - | - | - |
| 1777866373 | 15.56° C | 64% | 994.2 hPa | 0 mm | - | - | - |
| 1777865770 | 16.11° C | 60% | 994.1 hPa | 0 mm | - | - | - |
| 1777865166 | 16.11° C | 60% | 994.1 hPa | 0 mm | - | - | - |
| 1777864562 | 16.11° C | 59% | 994.1 hPa | 0 mm | - | - | - |
| 1777863958 | 16.67° C | 59% | 994.2 hPa | 0 mm | - | - | - |
| 1777863349 | 16.67° C | 58% | 994.3 hPa | 0 mm | - | - | - |
| 1777862745 | 16.11° C | 60% | 994.4 hPa | 0 mm | - | - | - |
| 1777862141 | 16.11° C | 61% | 994.5 hPa | 0 mm | - | - | - |
| 1777861538 | 16.11° C | 61% | 994.5 hPa | 0 mm | - | - | - |
| 1777860934 | 16.11° C | 61% | 994.6 hPa | 0 mm | - | - | - |
| 1777860330 | 16.11° C | 61% | 994.4 hPa | 0 mm | - | - | - |
| 1777859726 | 16.11° C | 59% | 994.3 hPa | 0 mm | - | - | - |
| 1777859123 | 16.67° C | 57% | 994.2 hPa | 0 mm | - | - | - |
| 1777858519 | 16.67° C | 55% | 994.1 hPa | 0 mm | - | - | - |
| 1777857915 | 17.22° C | 54% | 994 hPa | 0 mm | - | - | - |
| 1777857371 | 17.22° C | 54% | 993.8 hPa | 0 mm | - | - | - |
| 1777856767 | 17.22° C | 53% | 993.7 hPa | 0 mm | - | - | - |
| 1777856164 | 17.78° C | 53% | 993.7 hPa | 0 mm | - | - | - |
| 1777855560 | 17.78° C | 52% | 993.7 hPa | 0 mm | - | - | - |
| 1777854956 | 18.33° C | 51% | 993.4 hPa | 0 mm | - | - | - |
* Rain latest hour (hover to see other rain measurements)
** Current wind speed in m/s (hover to see current wind gust speed)